Total_Precipitation_Accumulation
0.25 0.26 0.25 0.25 0.25 0.25 0.25 0.27 0.27 0.27 0.26 0.24 0.22 0.19 0.16 0.15 0.18 0.22 0.24 0.29 0.35 0.44 0.52 0.52 0.51 0.63 0.71 0.65 0.63 0.64 0.68 0.74 0.73 0.70 0.84 0.87 0.76 0.58 0.51 0.52 0.53 0.54 0.45
0.19 0.23 0.23 0.24 0.26 0.25 0.22 0.22 0.27 0.32 0.32 0.30 0.27 0.25 0.18 0.15 0.18 0.20 0.20 0.24 0.34 0.43 0.58 0.74 0.75 0.70 0.69 0.66 0.66 0.67 0.72 0.84 0.85 0.76 0.82 0.90 0.86 0.76 0.66 0.55 0.46 0.47 0.50
0.18 0.22 0.23 0.24 0.25 0.26 0.25 0.22 0.23 0.27 0.33 0.35 0.34 0.32 0.27 0.24 0.23 0.21 0.20 0.23 0.28 0.33 0.45 0.69 0.88 1.01 0.93 0.75 0.66 0.63 0.71 0.85 0.96 0.89 0.88 1.03 1.04 0.95 0.80 0.62 0.49 0.46 0.43
0.22 0.26 0.26 0.27 0.29 0.29 0.28 0.29 0.30 0.29 0.33 0.37 0.40 0.41 0.37 0.33 0.30 0.27 0.29 0.30 0.29 0.30 0.36 0.46 0.58 0.79 0.95 1.01 0.88 0.76 0.75 0.82 0.92 0.94 1.04 1.27 1.31 1.19 0.93 0.74 0.64 0.55 0.48
0.39 0.43 0.46 0.43 0.43 0.43 0.41 0.40 0.43 0.43 0.43 0.50 0.54 0.53 0.49 0.43 0.34 0.34 0.40 0.35 0.38 0.36 0.36 0.38 0.38 0.45 0.58 0.75 0.86 0.94 0.92 0.85 0.90 0.97 1.20 1.62 1.65 1.41 1.03 0.84 0.76 0.71 0.62
0.60 0.69 0.72 0.75 0.72 0.67 0.64 0.58 0.60 0.65 0.73 0.76 0.75 0.72 0.65 0.50 0.43 0.39 0.38 0.38 0.43 0.46 0.45 0.43 0.39 0.35 0.37 0.47 0.59 0.73 0.88 0.92 0.93 1.00 1.19 1.50 1.66 1.55 1.30 1.08 0.85 0.71 0.64
0.70 0.74 0.77 0.79 0.77 0.77 0.79 0.80 0.78 0.82 0.86 0.87 0.85 0.85 0.80 0.76 0.63 0.48 0.40 0.40 0.43 0.48 0.54 0.58 0.43 0.30 0.37 0.42 0.49 0.53 0.60 0.70 0.82 0.91 1.05 1.25 1.53 1.67 1.50 1.13 0.96 0.87 0.69
0.77 0.79 0.82 0.86 0.89 0.89 0.84 0.79 0.77 0.77 0.76 0.74 0.74 0.75 0.81 0.77 0.69 0.53 0.43 0.42 0.46 0.49 0.54 0.57 0.54 0.43 0.42 0.46 0.49 0.47 0.46 0.46 0.53 0.65 0.77 1.00 1.28 1.60 1.75 1.51 1.30 1.14 0.93
0.78 0.84 0.89 0.93 0.97 0.86 0.74 0.73 0.72 0.70 0.65 0.61 0.57 0.60 0.68 0.73 0.67 0.55 0.51 0.48 0.49 0.49 0.50 0.53 0.56 0.51 0.43 0.35 0.40 0.41 0.40 0.41 0.40 0.45 0.55 0.73 0.98 1.29 1.64 1.76 1.48 1.14 0.98
0.73 0.76 0.76 0.78 0.87 0.89 0.80 0.77 0.76 0.77 0.72 0.66 0.60 0.61 0.63 0.72 0.71 0.57 0.54 0.51 0.54 0.56 0.66 0.69 0.63 0.54 0.45 0.33 0.34 0.38 0.37 0.34 0.40 0.41 0.43 0.50 0.65 0.90 1.25 1.44 1.44 1.15 0.91
0.50 0.49 0.52 0.58 0.65 0.68 0.71 0.73 0.77 0.77 0.74 0.67 0.59 0.54 0.55 0.62 0.69 0.59 0.52 0.53 0.58 0.65 0.73 0.81 0.77 0.62 0.45 0.34 0.31 0.33 0.30 0.34 0.42 0.46 0.48 0.52 0.65 0.83 0.99 1.22 1.35 1.26 1.01
0.43 0.45 0.46 0.47 0.48 0.48 0.57 0.61 0.65 0.67 0.64 0.59 0.54 0.50 0.52 0.50 0.48 0.50 0.39 0.36 0.44 0.56 0.67 0.84 0.88 0.72 0.54 0.40 0.32 0.28 0.26 0.27 0.33 0.39 0.42 0.44 0.52 0.65 0.83 1.09 1.30 1.31 1.17
0.44 0.45 0.46 0.44 0.43 0.44 0.47 0.47 0.48 0.50 0.47 0.41 0.38 0.41 0.46 0.47 0.42 0.35 0.29 0.23 0.27 0.44 0.59 0.84 0.94 0.81 0.68 0.54 0.43 0.38 0.32 0.28 0.31 0.33 0.31 0.32 0.37 0.49 0.70 1.04 1.38 1.51 1.40
0.42 0.40 0.38 0.38 0.39 0.43 0.48 0.49 0.50 0.47 0.41 0.35 0.32 0.38 0.40 0.42 0.40 0.40 0.38 0.29 0.28 0.41 0.48 0.62 0.77 0.83 0.76 0.70 0.59 0.47 0.39 0.35 0.33 0.35 0.35 0.38 0.46 0.58 0.71 0.86 1.17 1.41 1.43
0.47 0.44 0.42 0.42 0.44 0.44 0.45 0.45 0.40 0.39 0.32 0.30 0.31 0.39 0.41 0.40 0.35 0.30 0.37 0.39 0.39 0.44 0.46 0.59 0.75 0.88 0.90 0.87 0.84 0.73 0.62 0.56 0.49 0.47 0.53 0.54 0.59 0.66 0.69 0.78 0.99 1.19 1.20
0.51 0.44 0.40 0.39 0.41 0.43 0.41 0.40 0.33 0.24 0.21 0.20 0.21 0.26 0.29 0.26 0.19 0.15 0.19 0.24 0.26 0.29 0.35 0.52 0.70 0.87 1.00 1.05 1.08 1.02 0.92 0.82 0.74 0.71 0.73 0.71 0.70 0.74 0.76 0.78 0.91 1.06 1.07
0.45 0.41 0.37 0.34 0.36 0.36 0.36 0.39 0.42 0.35 0.20 0.15 0.16 0.17 0.20 0.16 0.13 0.14 0.16 0.20 0.20 0.19 0.24 0.42 0.58 0.73 0.91 1.06 1.09 1.06 0.98 0.97 0.97 0.96 0.95 0.91 0.85 0.84 0.87 0.85 0.86 0.98 1.04
0.38 0.36 0.34 0.34 0.34 0.32 0.30 0.31 0.36 0.44 0.41 0.31 0.22 0.18 0.18 0.15 0.18 0.21 0.20 0.21 0.20 0.19 0.23 0.39 0.52 0.66 0.81 0.99 1.05 1.05 1.07 1.10 1.10 1.06 1.07 1.07 1.04 0.98 0.97 0.95 0.91 0.92 1.01
0.31 0.26 0.22 0.22 0.25 0.26 0.27 0.29 0.33 0.38 0.44 0.50 0.42 0.25 0.22 0.21 0.28 0.35 0.28 0.29 0.32 0.31 0.32 0.38 0.46 0.58 0.75 0.93 1.07 1.12 1.14 1.14 1.13 1.14 1.14 1.15 1.17 1.11 1.01 1.00 1.04 1.02 1.00
0.23 0.21 0.16 0.12 0.15 0.23 0.29 0.31 0.32 0.36 0.43 0.53 0.50 0.34 0.29 0.31 0.47 0.57 0.45 0.47 0.49 0.47 0.47 0.52 0.55 0.62 0.79 0.96 1.08 1.18 1.23 1.20 1.16 1.17 1.18 1.18 1.18 1.16 1.06 1.05 1.13 1.11 0.98
0.17 0.15 0.13 0.10 0.15 0.24 0.29 0.30 0.31 0.38 0.47 0.57 0.52 0.35 0.29 0.38 0.64 0.75 0.69 0.68 0.67 0.64 0.63 0.61 0.56 0.60 0.75 0.91 1.02 1.13 1.22 1.21 1.15 1.13 1.19 1.24 1.17 1.11 1.07 1.08 1.12 1.17 1.12
0.17 0.16 0.15 0.14 0.21 0.26 0.25 0.32 0.42 0.50 0.56 0.61 0.56 0.42 0.39 0.52 0.73 0.80 0.75 0.75 0.74 0.72 0.68 0.65 0.61 0.63 0.75 0.89 0.96 1.06 1.20 1.21 1.18 1.16 1.22 1.30 1.25 1.15 1.11 1.09 1.09 1.17 1.22
0.22 0.21 0.19 0.21 0.28 0.27 0.29 0.38 0.50 0.56 0.58 0.61 0.60 0.59 0.60 0.68 0.74 0.78 0.77 0.72 0.70 0.72 0.74 0.77 0.77 0.77 0.83 0.93 0.98 1.06 1.20 1.20 1.16 1.17 1.22 1.25 1.23 1.18 1.16 1.11 1.09 1.15 1.20
0.18 0.21 0.21 0.20 0.22 0.27 0.33 0.37 0.42 0.47 0.49 0.51 0.54 0.56 0.59 0.63 0.67 0.68 0.69 0.69 0.70 0.73 0.76 0.83 0.85 0.86 0.89 0.93 0.95 0.96 1.06 1.05 0.98 0.96 1.01 1.07 1.09 1.09 1.09 1.06 1.03 1.05 1.09
0.19 0.22 0.23 0.23 0.22 0.25 0.30 0.35 0.41 0.46 0.50 0.50 0.51 0.54 0.56 0.56 0.60 0.65 0.69 0.70 0.70 0.71 0.71 0.72 0.76 0.80 0.78 0.74 0.77 0.80 0.84 0.79 0.74 0.74 0.84 0.94 0.95 0.94 0.93 0.92 0.91 0.96 1.04
0.20 0.25 0.28 0.32 0.31 0.30 0.33 0.40 0.45 0.46 0.48 0.48 0.51 0.54 0.60 0.62 0.62 0.66 0.67 0.67 0.66 0.67 0.65 0.67 0.69 0.65 0.64 0.63 0.59 0.60 0.58 0.55 0.56 0.60 0.65 0.74 0.81 0.81 0.84 0.85 0.84 0.89 0.94